[[{"header":{"parameterUnit":"m.s-1","parameterCategory":2,"la1":30.2991,"la2":30.254,"lo1":-89.0895,"lo2":-89.0444,"dy":0.0017,"dx":0.0017,"nx":28,"ny":28,"refTime":"2025-11-07T03:00:00:Z","depth":"0","parameterNumber":2,"parameterNumberName":"U-component_of_CURRENTS"},"data":[0,0,0,0,0,0,0,0,0,0,0,0,0,0,0,0,0,0,0,0,0,0,0,0,0,0,0,0,0,0,0,0,0,0,0,0,0,0,0,0,0,0,0,0,0,0,0,0,0,0,0,0,0,0,0,0,0,0,0.4482,0.4482,0,0.4532,0.4532,0.4533,0.4537,0.4536,0.4536,0.4535,0.4518,0.4518,0.4518,0,0,0,0,0,0,0,0,0,0,0,0,0,0.4446,0.4446,0.4482,0.4482,0.4483,0.4532,0.4532,0.4533,0.4537,0.4536,0.4536,0.4535,0.4518,0.4518,0.4518,0,0,0,0,0,0,0,0,0,0,0,0,0,0.4475,0.4446,0.4482,0.4491,0.4493,0.4531,0.4532,0.4533,0.4537,0.4536,0.4536,0.4535,0.4518,0.4518,0.4518,0.4533,0,0,0.4518,0.4518,0,0,0,0,0,0,0,0,0.4473,0.4476,0.4489,0.4491,0.4492,0.4528,0.4513,0.453,0.4537,0.452,0.4535,0.4535,0.4516,0.4516,0.4528,0.4533,0.4532,0.4518,0.4518,0.4518,0.4518,0,0,0,0,0,0,0,0.4471,0.4474,0.4501,0.449,0.4492,0.4512,0.4515,0.4517,0.452,0.4521,0.4522,0.4528,0.4516,0.4528,0.4527,0.4532,0.4518,0.4518,0.4518,0.4518,0.4603,0.4605,0,0,0,0,0,0,0.4463,0.4472,0.45,0.4503,0.4481,0.4513,0.4516,0.4517,0.4521,0.4522,0.4529,0.4528,0.4528,0.4527,0.4526,0.4589,0.4518,0.4518,0.4518,0.4601,0.4604,0.4606,0,0,0,0,0,0,0.4462,0.4465,0.4498,0.4489,0.4495,0.4514,0.4515,0.4518,0.4534,0.4528,0.4527,0.4541,0.4527,0.4526,0.4545,0.4586,0.4518,0.4518,0.4598,0.4602,0.4605,0.4685,0,0,0,0,0,0,0.4461,0.4464,0.4465,0.4488,0.4495,0.453,0.4516,0.452,0.4539,0.4538,0.4538,0.4536,0.4527,0.4545,0.4545,0.4585,0.4518,0.4595,0.46,0.4604,0.4679,0.469,0.47,0,0,0,0,0,0.4459,0.4463,0.4464,0.4468,0.4493,0.4531,0.4537,0.4548,0.454,0.4557,0.4559,0.4536,0.4572,0.4547,0.4546,0.4587,0.4593,0.4599,0.4604,0.4675,0.4688,0.47,0,0,0,0,0,0,0.4441,0.4465,0.4466,0.4474,0.4505,0.4532,0.4548,0.4555,0.4572,0.4568,0.4556,0.4556,0.4592,0.4579,0.4551,0.4627,0.4582,0.4588,0.4637,0.4649,0.466,0.4697,0.4518,0,0,0,0,0,0.4438,0.4451,0.4479,0.4487,0.4503,0.4527,0.4543,0.4554,0.4572,0.4579,0.4579,0.4588,0.4614,0.462,0.4634,0.4666,0.4696,0.4696,0.4706,0.4715,0.4748,0.4823,0.4844,0.4623,0.4623,0.4623,0,0,0.4429,0.4449,0.4452,0.4486,0.4508,0.4544,0.4535,0.4567,0.4604,0.4573,0.4614,0.462,0.4631,0.4676,0.4692,0.4668,0.4796,0.4721,0.4729,0.4757,0.4831,0.4853,0.4872,0.4626,0.4626,0.4625,0,0,0.4434,0.4442,0.446,0.4491,0.4532,0.4558,0.4569,0.4603,0.4627,0.4665,0.4666,0.4704,0.4716,0.4755,0.4771,0.4848,0.4848,0.4843,0.4924,0.4997,0.5016,0.5033,0.5108,0.5131,0.4847,0.4847,0.4847,0,0.4426,0.445,0.4473,0.4508,0.4536,0.4566,0.4601,0.4641,0.4677,0.4708,0.4685,0.4767,0.4766,0.4859,0.4892,0.4874,0.4913,0.4871,0.5012,0.5029,0.5046,0.5118,0.5143,0.4852,0.4851,0.4851,0.485,0,0.445,0.4474,0.4492,0.4547,0.4583,0.4619,0.4675,0.4719,0.4742,0.4777,0.4861,0.4884,0.4935,0.4947,0.4944,0.5068,0.5059,0.5015,0.498,0.5073,0.5143,0.5167,0.4858,0.4856,0.4855,0.4854,0,0,0.4418,0.4493,0.4498,0.4537,0.4606,0.4644,0.4719,0.48,0.4877,0.4908,0.5023,0.5061,0.5078,0.5102,0.5114,0.5188,0.5333,0.516,0.5161,0.5235,0.551,0.5412,0.5429,0.531,0.5315,0.5318,0.5515,0,0.4432,0.45,0.4532,0.4606,0.4651,0.4708,0.4784,0.4862,0.494,0.5064,0.5117,0.5219,0.5137,0.5197,0.525,0.5333,0.54,0.5285,0.5409,0.5414,0.5316,0.5455,0.5222,0.537,0.5539,0.5543,0.5546,0,0.4448,0.4494,0.4562,0.466,0.4684,0.4731,0.4875,0.4949,0.5117,0.5187,0.5285,0.5348,0.5483,0.5408,0.5552,0.5482,0.5506,0.5548,0.5555,0.5458,0.5362,0.5303,0.5407,0.5289,0.5583,0.558,0.5577,0,0.4446,0.4519,0.4578,0.4608,0.472,0.4765,0.4828,0.4974,0.508,0.5294,0.5409,0.5532,0.5624,0.5692,0.5722,0.5671,0.5891,0.5818,0.575,0.5743,0.5569,0.5538,0.5573,0.5928,0.5927,0.5927,0.5926,0,0.4472,0.4517,0.4576,0.462,0.4696,0.4766,0.4894,0.4993,0.5187,0.5333,0.5462,0.5608,0.5699,0.5812,0.5829,0.5865,0.5951,0.5818,0.5805,0.5588,0.5559,0.5463,0.5422,0.5934,0.5932,0.5931,0.593,0,0.4491,0.4527,0.46,0.4687,0.4706,0.4768,0.4911,0.502,0.5192,0.5413,0.5497,0.5705,0.5842,0.5914,0.6052,0.5976,0.5893,0.6024,0.5766,0.5717,0.5519,0.5491,0.5354,0.5195,0.6026,0.6025,0.6024,0,0.4511,0.4549,0.4633,0.4665,0.4701,0.4786,0.4852,0.5011,0.513,0.5447,0.5552,0.5773,0.5877,0.604,0.5995,0.6036,0.5861,0.5823,0.5671,0.5527,0.5488,0.5274,0.5134,0.5487,0.5482,0.5478,0.5474,0,0.4549,0.4578,0.4647,0.4696,0.4747,0.4813,0.4907,0.4992,0.5198,0.5366,0.5566,0.5695,0.5844,0.5766,0.5805,0.5795,0.5556,0.5736,0.5656,0.515,0.4852,0.4683,0.5353,0.5437,0.544,0.5443,0.5445,0.5447,0.457,0.461,0.4678,0.4726,0.4766,0.4791,0.4782,0.4908,0.5039,0.5168,0.5398,0.5435,0.5516,0.5537,0.5503,0.5313,0.5302,0.5149,0.516,0.4982,0.4711,0.5306,0.5314,0.5317,0.5319,0.5322,0.5324,0,0.4552,0.4611,0.4682,0.4698,0.4676,0.4722,0.4773,0.4712,0.4744,0.4896,0.4982,0.4991,0.4965,0.5008,0.494,0.4757,0.4523,0.465,0.431,0.4226,0.4834,0.469,0.4475,0.4475,0.4475,0.4475,0.4475,0.4476,0.4545,0.4596,0.4632,0.4581,0.4558,0.4411,0.4376,0.4334,0.4355,0.4281,0.4225,0.4285,0.4551,0.4696,0.4537,0.4411,0.4082,0.3891,0.3916,0.4381,0.4427,0.447,0.4325,0.4037,0.4036,0.3076,0.3069,0.3064]},{"header":{"parameterUnit":"m.s-1","parameterCategory":2,"la1":30.2991,"la2":30.254,"lo1":-89.0895,"lo2":-89.0444,"dy":0.0017,"dx":0.0017,"nx":28,"ny":28,"refTime":"2025-11-07T03:00:00:Z","depth":"0","parameterNumber":3,"parameterNumberName":"V-component_of_CURRENTS"},"data":[0,0,0,0,0,0,0,0,0,0,0,0,0,0,0,0,0,0,0,0,0,0,0,0,0,0,0,0,0,0,0,0,0,0,0,0,0,0,0,0,0,0,0,0,0,0,0,0,0,0,0,0,0,0,0,0,0,0,-0.0008,-0.0008,0,-0.0079,-0.008,-0.0081,-0.0133,-0.0134,-0.0134,-0.0134,-0.0223,-0.0225,-0.0228,0,0,0,0,0,0,0,0,0,0,0,0,0,0.0015,0.0015,-0.0008,-0.0008,-0.0009,-0.0079,-0.008,-0.0082,-0.0133,-0.0134,-0.0134,-0.0134,-0.0222,-0.0225,-0.0228,0,0,0,0,0,0,0,0,0,0,0,0,0,-0.0022,0.0015,-0.0007,-0.0041,-0.0044,-0.0079,-0.008,-0.0082,-0.0133,-0.0134,-0.0134,-0.0134,-0.0222,-0.0225,-0.0228,-0.0244,0,0,-0.0238,-0.024,0,0,0,0,0,0,0,0,-0.002,-0.0024,-0.0035,-0.0039,-0.0043,-0.0095,-0.0105,-0.0136,-0.0133,-0.0103,-0.0134,-0.0134,-0.018,-0.0187,-0.0204,-0.0248,-0.0252,-0.0239,-0.0241,-0.0242,-0.0243,0,0,0,0,0,0,0,-0.0017,-0.0021,-0.0039,-0.0036,-0.004,-0.0076,-0.0081,-0.0112,-0.0142,-0.0106,-0.0109,-0.0112,-0.0182,-0.02,-0.0206,-0.0253,-0.0239,-0.0242,-0.0244,-0.0245,-0.0313,-0.0313,0,0,0,0,0,0,0.0002,-0.0018,-0.0037,-0.0041,-0.0028,-0.0076,-0.0082,-0.008,-0.0141,-0.015,-0.0111,-0.0114,-0.0194,-0.0202,-0.0209,-0.0204,-0.0242,-0.0245,-0.0247,-0.0313,-0.0313,-0.0312,0,0,0,0,0,0,0.0002,0.0001,-0.0034,-0.0029,-0.0036,-0.0075,-0.0074,-0.0082,-0.0093,-0.0145,-0.0154,-0.0113,-0.0195,-0.0205,-0.0226,-0.0208,-0.0247,-0.025,-0.0313,-0.0313,-0.0313,-0.021,0,0,0,0,0,0,0.0003,0.0002,0.0006,-0.0028,-0.0035,-0.0035,-0.0073,-0.0083,-0.0093,-0.0097,-0.0149,-0.0158,-0.0196,-0.0221,-0.023,-0.0214,-0.0252,-0.0313,-0.0313,-0.0313,-0.0214,-0.0206,-0.02,0,0,0,0,0,0.0004,0.0024,0.0007,0.0005,-0.0026,-0.0034,-0.0041,-0.0073,-0.0092,-0.0086,-0.0127,-0.0156,-0.0225,-0.0223,-0.0234,-0.0218,-0.0314,-0.0313,-0.0313,-0.0217,-0.0208,-0.02,0,0,0,0,0,0,0.0042,0.002,0.0001,0.0013,-0.0003,-0.0041,-0.004,-0.0063,-0.0092,-0.0098,-0.0151,-0.0162,-0.0177,-0.0214,-0.0211,-0.024,-0.0276,-0.0277,-0.0199,-0.0191,-0.0184,-0.0144,-0.0255,0,0,0,0,0,0.0052,0.0057,0.0031,0.0041,0.0035,-0.0003,-0.0012,-0.0031,-0.006,-0.0073,-0.0109,-0.0153,-0.0185,-0.0199,-0.0236,-0.0246,-0.0254,-0.0246,-0.0239,-0.0233,-0.0209,-0.0197,-0.0185,-0.0311,-0.0311,-0.0311,0,0,0.0068,0.0058,0.0059,0.0048,0.0028,0.0042,-0.0009,-0.0011,0.0,-0.0078,-0.0077,-0.0128,-0.0184,-0.0198,-0.0208,-0.0223,-0.0205,-0.0232,-0.0226,-0.0205,-0.0195,-0.0182,-0.0171,-0.0311,-0.0311,-0.0311,0,0,0.0116,0.0095,0.0119,0.0111,0.0095,0.0077,0.0083,0.0052,0.0037,0.0025,-0.0028,-0.0059,-0.0113,-0.0141,-0.0165,-0.0141,-0.017,-0.0165,-0.0092,-0.008,-0.0069,-0.0059,-0.0059,-0.0049,-0.0158,-0.0158,-0.0158,0,0.0135,0.0164,0.0125,0.0149,0.0157,0.0102,0.0139,0.0116,0.0082,0.0085,0.0041,-0.0017,-0.008,-0.0074,-0.0085,-0.0121,-0.0124,-0.0115,-0.0067,-0.0057,-0.0049,-0.0051,-0.0042,-0.0153,-0.0154,-0.0154,-0.0155,0,0.0201,0.0223,0.0239,0.0251,0.0255,0.0275,0.0248,0.0247,0.0215,0.0191,0.0183,0.0102,0.0072,0.0036,-0.0027,0.0001,-0.0023,-0.0058,-0.0077,-0.0029,-0.0036,-0.0028,-0.0146,-0.0148,-0.0149,-0.0151,0,0,0.0253,0.0281,0.0289,0.032,0.0314,0.0331,0.0352,0.0367,0.0399,0.0339,0.0394,0.0286,0.0238,0.0207,0.0134,0.0125,0.0149,0.0058,0.0057,0.0079,0.0177,0.0136,0.014,0.013,0.0132,0.0134,0.0146,0,0.032,0.0395,0.0391,0.0468,0.0505,0.0478,0.0512,0.0511,0.0492,0.0526,0.045,0.0457,0.0306,0.0304,0.0264,0.0195,0.0175,0.0149,0.0109,0.0108,0.0084,0.015,0.0132,0.014,0.0153,0.0155,0.0155,0,0.0389,0.0434,0.052,0.0591,0.0607,0.0641,0.07,0.0722,0.0735,0.073,0.0713,0.0657,0.0628,0.0505,0.0408,0.0402,0.0291,0.0225,0.0223,0.0162,0.0084,0.0092,0.0153,-0.0083,0.0167,0.0166,0.0165,0,0.0451,0.0532,0.061,0.0628,0.0687,0.0729,0.0762,0.078,0.0838,0.0875,0.094,0.0866,0.0869,0.0739,0.0544,0.0493,0.0461,0.0376,0.0238,0.0233,0.0198,0.0188,0.0048,0.032,0.032,0.032,0.032,0,0.0527,0.0591,0.0645,0.0686,0.0795,0.0803,0.0919,0.0938,0.1017,0.1134,0.1049,0.1146,0.0928,0.0865,0.0659,0.0486,0.0542,0.0279,0.0248,0.0229,0.0222,-0.0003,-0.0147,0.032,0.032,0.032,0.032,0,0.0579,0.0612,0.0706,0.0787,0.0824,0.0895,0.1033,0.1123,0.1178,0.1346,0.1385,0.1377,0.1293,0.1061,0.0873,0.0653,0.0346,0.04,0.0384,0.035,-0.0022,-0.0159,-0.0331,-0.0436,0.0266,0.0265,0.0265,0,0.0613,0.0664,0.0776,0.0849,0.0891,0.1008,0.1107,0.1192,0.1311,0.1506,0.1616,0.1596,0.163,0.1334,0.0933,0.0603,0.034,0.0352,0.0232,-0.0017,-0.0193,-0.0308,-0.0392,0.0221,0.022,0.0219,0.0218,0,0.0686,0.0716,0.0797,0.0932,0.1045,0.1196,0.1346,0.1472,0.1618,0.1793,0.2011,0.2075,0.1783,0.1451,0.0957,0.0704,0.0169,0.0325,0.0084,-0.0216,-0.0364,-0.0486,0.0172,0.0212,0.0213,0.0213,0.0213,0.0214,0.074,0.0808,0.0909,0.1041,0.118,0.1371,0.1517,0.1715,0.1956,0.2238,0.2283,0.2432,0.1914,0.1248,0.0857,0.011,0.0097,-0.0128,-0.0263,-0.0349,-0.0485,0.0153,0.014,0.014,0.0141,0.0141,0.0141,0,0.0827,0.0905,0.1024,0.1197,0.1362,0.1419,0.168,0.1855,0.2168,0.2426,0.263,0.2477,0.1832,0.1145,0.0143,-0.0374,-0.0574,-0.0658,-0.0836,-0.0886,-0.0293,-0.0333,-0.0468,-0.0467,-0.0467,-0.0467,-0.0467,-0.0466,0.0884,0.1011,0.1067,0.1327,0.1458,0.1695,0.1854,0.2118,0.2341,0.267,0.2783,0.283,0.2312,0.0533,-0.0643,-0.0901,-0.1287,-0.1392,-0.1548,-0.1174,-0.1136,-0.1099,-0.117,-0.1478,-0.1479,-0.2086,-0.2092,-0.2097]}],[{"header":{"parameterUnit":"m.s-1","parameterCategory":2,"la1":30.2991,"la2":30.254,"lo1":-89.0895,"lo2":-89.0444,"dy":0.0017,"dx":0.0017,"nx":28,"ny":28,"refTime":"2025-11-07T03:00:00:Z","depth":"2","parameterNumber":2,"parameterNumberName":"U-component_of_CURRENTS"},"data":[0,0,0,0,0,0,0,0,0,0,0,0,0,0,0,0,0,0,0,0,0,0,0,0,0,0,0,0,0,0,0,0,0,0,0,0,0,0,0,0,0,0,0,0,0,0,0,0,0,0,0,0,0,0,0,0,0,0,0.3234,0.3235,0,0.325,0.3249,0.3249,0.3265,0.3266,0.3267,0.3268,0.3311,0.3311,0.3311,0,0,0,0,0,0,0,0,0,0,0,0,0,0.3121,0.3122,0.3234,0.3235,0.3236,0.325,0.3249,0.3248,0.3265,0.3266,0.3267,0.3269,0.3311,0.3311,0.3311,0,0,0,0,0,0,0,0,0,0,0,0,0,0.3146,0.3123,0.3233,0.3254,0.3257,0.325,0.3249,0.3248,0.3264,0.3266,0.3268,0.327,0.3311,0.3311,0.3311,0.3275,0,0,0.3311,0.3311,0,0,0,0,0,0,0,0,0.3145,0.3149,0.325,0.3252,0.3256,0.3267,0.3226,0.3262,0.3264,0.325,0.3268,0.327,0.3304,0.3305,0.3288,0.3277,0.3279,0.3311,0.3311,0.3311,0.3311,0,0,0,0,0,0,0,0.3143,0.3148,0.3229,0.3251,0.3255,0.323,0.3235,0.3231,0.3259,0.3251,0.3255,0.3274,0.3305,0.3288,0.329,0.328,0.3311,0.3311,0.3311,0.3311,0.3401,0.3403,0,0,0,0,0,0,0.3166,0.3147,0.3229,0.3231,0.3216,0.3232,0.3237,0.3252,0.3259,0.3264,0.3272,0.3274,0.3287,0.329,0.3292,0.338,0.3311,0.3311,0.3311,0.3398,0.3401,0.3404,0,0,0,0,0,0,0.3164,0.3173,0.3228,0.3198,0.3205,0.3234,0.3249,0.3252,0.3263,0.3276,0.328,0.3286,0.3289,0.3292,0.3332,0.3378,0.3311,0.3311,0.3396,0.3399,0.3403,0.3475,0,0,0,0,0,0,0.316,0.3172,0.3185,0.3199,0.3208,0.3253,0.3249,0.3251,0.3275,0.3279,0.3288,0.3293,0.329,0.3332,0.3332,0.3377,0.3311,0.3393,0.3397,0.3402,0.3469,0.348,0.349,0,0,0,0,0,0.3156,0.3175,0.3185,0.3196,0.3227,0.3255,0.3256,0.3274,0.3275,0.3286,0.3306,0.3294,0.3361,0.3334,0.3333,0.3379,0.3391,0.3396,0.3401,0.3465,0.3478,0.3489,0,0,0,0,0,0,0.3131,0.318,0.3191,0.3224,0.3252,0.3263,0.3274,0.3283,0.3299,0.331,0.3309,0.3316,0.337,0.3364,0.3334,0.3421,0.3379,0.3384,0.3428,0.344,0.345,0.3473,0.3311,0,0,0,0,0,0.3134,0.3164,0.3201,0.3229,0.3242,0.3256,0.3268,0.3288,0.3309,0.3317,0.3331,0.3354,0.3383,0.3405,0.3419,0.3456,0.3475,0.3491,0.3501,0.351,0.3531,0.3597,0.3615,0.3421,0.3421,0.3421,0,0,0.3134,0.3165,0.3183,0.3227,0.324,0.3266,0.3266,0.3301,0.3339,0.332,0.3369,0.3382,0.3399,0.3452,0.3477,0.3458,0.3577,0.3516,0.3523,0.3541,0.3604,0.3623,0.364,0.3425,0.3424,0.3424,0,0,0.3143,0.3174,0.3196,0.3225,0.3271,0.3286,0.3304,0.3334,0.3366,0.3409,0.342,0.3468,0.3491,0.3529,0.3547,0.362,0.3623,0.3629,0.3704,0.3768,0.3784,0.3799,0.3851,0.387,0.3641,0.3641,0.3641,0,0.3136,0.3176,0.3207,0.3235,0.3268,0.3299,0.3331,0.3363,0.3411,0.3446,0.3443,0.3521,0.3531,0.3617,0.3656,0.3644,0.3679,0.3651,0.3781,0.3796,0.381,0.386,0.388,0.3645,0.3645,0.3644,0.3644,0,0.3162,0.3196,0.3212,0.3263,0.3299,0.3336,0.3396,0.3441,0.3476,0.3508,0.36,0.3628,0.3684,0.3698,0.3701,0.3816,0.3809,0.3779,0.3747,0.3834,0.3881,0.39,0.3651,0.365,0.3648,0.3647,0,0,0.3145,0.3213,0.3222,0.3251,0.3323,0.3356,0.3434,0.3509,0.3575,0.3626,0.3715,0.3776,0.3804,0.383,0.3853,0.3916,0.4041,0.3905,0.3907,0.3953,0.4193,0.4102,0.4113,0.4039,0.4043,0.4046,0.4187,0,0.3153,0.3203,0.3248,0.3309,0.334,0.3408,0.347,0.355,0.3634,0.3728,0.379,0.3869,0.3854,0.3904,0.3971,0.4037,0.4096,0.4006,0.4107,0.411,0.4014,0.4134,0.3812,0.3904,0.4206,0.4209,0.4211,0,0.3168,0.3204,0.3254,0.3337,0.3357,0.3403,0.3534,0.3611,0.3748,0.3813,0.392,0.3968,0.4101,0.4056,0.422,0.4171,0.4196,0.4223,0.4228,0.4134,0.4055,0.3867,0.3927,0.4243,0.4241,0.4238,0.4236,0,0.3141,0.3217,0.3257,0.3286,0.3374,0.3427,0.3498,0.3633,0.3716,0.3899,0.3983,0.4111,0.422,0.4278,0.4344,0.4305,0.4499,0.4437,0.4371,0.4364,0.4104,0.4068,0.4529,0.4529,0.4529,0.4528,0.4528,0,0.3138,0.317,0.3249,0.327,0.3341,0.3423,0.3536,0.3635,0.3784,0.3887,0.404,0.4151,0.4288,0.44,0.441,0.4474,0.4554,0.4421,0.441,0.412,0.4085,0.4379,0.436,0.4534,0.4533,0.4531,0.4531,0,0.3095,0.3139,0.3197,0.3293,0.3326,0.3396,0.354,0.3626,0.3787,0.3947,0.4006,0.4233,0.4391,0.4483,0.4608,0.4575,0.4612,0.4589,0.4241,0.4186,0.4418,0.4401,0.4559,0.4557,0.4556,0.4555,0.4554,0,0.307,0.3075,0.3203,0.3244,0.3289,0.3395,0.346,0.3614,0.3718,0.3969,0.4041,0.4258,0.4368,0.4552,0.4537,0.456,0.4606,0.4259,0.4112,0.4456,0.4429,0.4414,0.44,0.3801,0.3794,0.3788,0.3783,0,0.3008,0.3057,0.3123,0.3197,0.3273,0.3357,0.3474,0.3518,0.3703,0.3828,0.398,0.4079,0.4299,0.4209,0.4282,0.4236,0.4233,0.4141,0.4619,0.3837,0.3751,0.3721,0.373,0.3732,0.3737,0.374,0.3743,0.3745,0.2979,0.3018,0.3093,0.3148,0.3239,0.328,0.3264,0.3387,0.3464,0.3575,0.3772,0.3832,0.3933,0.3888,0.3778,0.3716,0.3994,0.3811,0.3825,0.3846,0.3727,0.3642,0.3581,0.3585,0.3588,0.3591,0.3594,0,0.2935,0.296,0.3023,0.3103,0.3121,0.32,0.3235,0.3163,0.3168,0.3345,0.3429,0.3216,0.3208,0.3287,0.3123,0.3141,0.3072,0.3006,0.2877,0.2935,0.2984,0.2815,0.243,0.2426,0.2421,0.2418,0,0,0.293,0.2934,0.2954,0.2926,0.2983,0.2922,0.2874,0.279,0.2821,0.2791,0.2821,0.3095,0.3227,0.2782,0.2742,0.2547,0.2708,0.2456,0.3407,0.3315,0.3358,0.3488,0.3299,0,0,0,0,0]},{"header":{"parameterUnit":"m.s-1","parameterCategory":2,"la1":30.2991,"la2":30.254,"lo1":-89.0895,"lo2":-89.0444,"dy":0.0017,"dx":0.0017,"nx":28,"ny":28,"refTime":"2025-11-07T03:00:00:Z","depth":"2","parameterNumber":3,"parameterNumberName":"V-component_of_CURRENTS"},"data":[0,0,0,0,0,0,0,0,0,0,0,0,0,0,0,0,0,0,0,0,0,0,0,0,0,0,0,0,0,0,0,0,0,0,0,0,0,0,0,0,0,0,0,0,0,0,0,0,0,0,0,0,0,0,0,0,0,0,0.0124,0.0123,0,0.0069,0.0068,0.0068,0.0021,0.002,0.002,0.0019,-0.0068,-0.007,-0.0072,0,0,0,0,0,0,0,0,0,0,0,0,0,0.0149,0.0149,0.0124,0.0123,0.0122,0.0069,0.0068,0.0068,0.0021,0.002,0.002,0.0019,-0.0068,-0.007,-0.0072,0,0,0,0,0,0,0,0,0,0,0,0,0,0.012,0.0149,0.0124,0.0093,0.009,0.0069,0.0068,0.0067,0.0021,0.002,0.002,0.0019,-0.0067,-0.007,-0.0073,-0.0076,0,0,-0.0081,-0.0083,0,0,0,0,0,0,0,0,0.0122,0.0119,0.0098,0.0095,0.0092,0.0052,0.0045,0.0018,0.0021,0.0046,0.0019,0.0019,-0.003,-0.0036,-0.0045,-0.008,-0.0084,-0.0082,-0.0083,-0.0085,-0.0085,0,0,0,0,0,0,0,0.0124,0.0121,0.0101,0.0098,0.0094,0.0069,0.0064,0.004,0.0011,0.0044,0.0041,0.0036,-0.0033,-0.0043,-0.0048,-0.0085,-0.0081,-0.0084,-0.0086,-0.0087,-0.0143,-0.0143,0,0,0,0,0,0,0.0135,0.0123,0.0103,0.01,0.0106,0.0069,0.0064,0.0065,0.0012,0.0004,0.0037,0.0034,-0.0037,-0.0045,-0.0051,-0.0053,-0.0085,-0.0087,-0.0089,-0.0143,-0.0143,-0.0143,0,0,0,0,0,0,0.0136,0.0134,0.0105,0.011,0.0105,0.007,0.0071,0.0064,0.0055,0.0007,-0.0002,0.0035,-0.0038,-0.0047,-0.0069,-0.0057,-0.0088,-0.0091,-0.0144,-0.0143,-0.0143,-0.0061,0,0,0,0,0,0,0.0137,0.0135,0.0138,0.0111,0.0105,0.0103,0.0071,0.0063,0.0053,0.0049,0.0002,-0.0007,-0.0039,-0.0064,-0.0071,-0.0062,-0.0093,-0.0144,-0.0144,-0.0143,-0.0064,-0.0058,-0.0053,0,0,0,0,0,0.0138,0.0155,0.0138,0.0136,0.0111,0.0104,0.0099,0.0071,0.0054,0.0058,0.0024,-0.0005,-0.0067,-0.0066,-0.0075,-0.0066,-0.0144,-0.0144,-0.0143,-0.0067,-0.0059,-0.0053,0,0,0,0,0,0,0.0166,0.015,0.0132,0.0142,0.0126,0.0097,0.0098,0.0078,0.0054,0.0049,0.0001,-0.0009,-0.0025,-0.0057,-0.0055,-0.0083,-0.0112,-0.0113,-0.0051,-0.0044,-0.0039,-0.001,-0.0096,0,0,0,0,0,0.0174,0.0183,0.0158,0.0165,0.016,0.0129,0.0121,0.0104,0.008,0.0069,0.0035,-0.0003,-0.003,-0.0045,-0.0075,-0.0086,-0.0117,-0.0089,-0.0083,-0.0078,-0.0062,-0.0098,-0.0094,-0.0141,-0.0141,-0.0141,0,0,0.0184,0.0179,0.018,0.0171,0.0155,0.0166,0.0123,0.0121,0.0129,0.0063,0.0061,0.0018,-0.0029,-0.0042,-0.0053,-0.0067,-0.0083,-0.0078,-0.0073,-0.0059,-0.0097,-0.0092,-0.0088,-0.0141,-0.0141,-0.0141,0,0,0.0221,0.0207,0.0228,0.0223,0.0209,0.0194,0.0198,0.0171,0.0159,0.0148,0.0103,0.0072,0.0028,0.0,-0.002,-0.0001,-0.0051,-0.0019,0.0033,-0.0002,0.0003,0.0006,-0.003,-0.0031,-0.0017,-0.0017,-0.0017,0,0.0234,0.0258,0.0232,0.0253,0.0261,0.0214,0.0244,0.0225,0.0195,0.0192,0.0158,0.0099,0.0052,0.0045,0.0043,0.0015,-0.0017,0.0015,0.0008,0.001,0.0012,-0.0026,-0.0028,-0.0013,-0.0013,-0.0014,-0.0014,0,0.0287,0.0305,0.032,0.0334,0.0338,0.0355,0.0333,0.0329,0.0301,0.0277,0.0257,0.0191,0.0158,0.013,0.0089,0.0082,0.0051,0.0021,-0.0003,0.0022,-0.002,-0.0023,-0.0007,-0.0008,-0.001,-0.0011,0,0,0.032,0.0352,0.0356,0.0386,0.0386,0.0402,0.0416,0.042,0.044,0.0382,0.0403,0.0326,0.028,0.0254,0.0195,0.0156,0.0128,0.0097,0.0093,0.0072,0.0048,0.0008,-0.0001,0.0094,0.0094,0.0094,0.0012,0,0.0369,0.0437,0.0437,0.0502,0.0538,0.0516,0.054,0.0534,0.0513,0.0517,0.0439,0.0426,0.0331,0.0317,0.0262,0.0172,0.0124,0.0153,0.0017,0.0013,-0.0017,-0.0004,0.0032,-0.004,0.0008,0.0008,0.0007,0,0.0423,0.0465,0.0539,0.0604,0.0617,0.0646,0.0689,0.0707,0.0689,0.0675,0.0636,0.0568,0.0507,0.0422,0.0276,0.0298,0.018,0.0097,0.0091,0.0027,-0.0033,-0.0059,-0.0048,0.0001,0.0002,0.0002,0.0003,0,0.0473,0.0542,0.0611,0.063,0.0683,0.0716,0.0744,0.0749,0.0797,0.0778,0.0806,0.0699,0.0677,0.0514,0.0318,0.0298,0.0156,0.0108,-0.004,-0.0045,-0.0053,-0.0058,0.0002,0.0002,0.0002,0.0002,0.0003,0,0.0536,0.0593,0.0641,0.0679,0.0773,0.0783,0.0881,0.0887,0.0931,0.1011,0.0894,0.0925,0.0698,0.0579,0.0374,0.0163,0.0192,-0.0022,-0.0065,-0.0026,-0.0027,-0.0022,-0.0024,-0.0001,-0.0,0.0001,0.0001,0,0.0591,0.0615,0.0704,0.0772,0.0801,0.0871,0.0992,0.1073,0.1085,0.1191,0.1195,0.1109,0.0948,0.07,0.0451,0.0261,0.0045,-0.0044,0.0014,-0.0021,-0.0149,-0.0145,-0.0207,-0.0209,-0.0211,-0.0212,-0.0213,0,0.0629,0.0678,0.0775,0.0843,0.088,0.0989,0.1084,0.1146,0.1252,0.1307,0.1378,0.1248,0.118,0.0794,0.0429,0.0074,0.0028,-0.0122,-0.0161,-0.0133,-0.0168,-0.0162,-0.0157,-0.0143,-0.0144,-0.0144,-0.0145,0,0.0711,0.0738,0.0816,0.0944,0.1052,0.1192,0.1329,0.143,0.1522,0.159,0.1645,0.1581,0.1226,0.0866,0.0381,0.0144,-0.0066,-0.0143,-0.0116,-0.0097,-0.008,-0.0112,-0.0108,-0.0148,-0.0148,-0.0148,-0.0148,-0.0147,0.0775,0.0848,0.0944,0.1075,0.1203,0.1371,0.1489,0.1639,0.1788,0.1888,0.1833,0.1747,0.1358,0.0727,0.0311,-0.0116,-0.01,-0.0244,-0.0239,-0.0235,-0.0214,-0.0201,-0.0288,-0.0289,-0.0289,-0.0289,-0.029,0,0.0861,0.095,0.1075,0.1234,0.1381,0.1432,0.1645,0.1749,0.1912,0.2001,0.2018,0.1637,0.1239,0.0788,0.0147,-0.0233,-0.0247,-0.0342,-0.0277,-0.027,-0.0265,-0.0244,-0.0327,-0.0328,-0.0329,-0.0331,0,0,0.0914,0.1051,0.1119,0.1359,0.147,0.1661,0.1774,0.1899,0.199,0.2042,0.2005,0.1919,0.1373,0.0907,0.0389,0.0024,-0.0031,-0.0039,0.0033,0.0178,0.0188,-0.0167,-0.0122,0,0,0,0,0]}],[{"header":{"parameterUnit":"m.s-1","parameterCategory":2,"la1":30.2991,"la2":30.254,"lo1":-89.0895,"lo2":-89.0444,"dy":0.0017,"dx":0.0017,"nx":28,"ny":28,"refTime":"2025-11-07T03:00:00:Z","depth":"4","parameterNumber":2,"parameterNumberName":"U-component_of_CURRENTS"},"data":[0,0,0,0,0,0,0,0,0,0,0,0,0,0,0,0,0,0,0,0,0,0,0,0,0,0,0,0,0,0,0,0,0,0,0,0,0,0,0,0,0,0,0,0,0,0,0,0,0,0,0,0,0,0,0,0,0,0,0.1912,0.1913,0,0.2003,0.2004,0.2005,0.2075,0.2075,0.2076,0.2077,0.217,0.2171,0.2173,0,0,0,0,0,0,0,0,0,0,0,0,0,0.1812,0.1813,0.1912,0.1913,0.1914,0.2003,0.2004,0.2005,0.2074,0.2075,0.2076,0.2077,0.2169,0.2171,0.2173,0,0,0,0,0,0,0,0,0,0,0,0,0,0.1873,0.1813,0.1911,0.1961,0.1966,0.2003,0.2004,0.2005,0.2074,0.2075,0.2077,0.2078,0.2169,0.2171,0.2174,0.2165,0,0,0.2181,0.2183,0,0,0,0,0,0,0,0,0.1869,0.1876,0.1952,0.1958,0.1964,0.203,0.2003,0.2059,0.2074,0.2032,0.2077,0.2078,0.2123,0.213,0.2142,0.217,0.2174,0.2182,0.2183,0.2184,0.2185,0,0,0,0,0,0,0,0.1865,0.1873,0.1946,0.1954,0.1961,0.1983,0.1993,0.2014,0.2068,0.2035,0.2041,0.2053,0.2126,0.2139,0.2145,0.2175,0.2182,0.2184,0.2186,0.2187,0.2328,0.233,0,0,0,0,0,0,0.1855,0.1868,0.1943,0.1949,0.192,0.1984,0.1995,0.2006,0.2068,0.2079,0.2052,0.2056,0.2134,0.2141,0.2148,0.225,0.2184,0.2187,0.2188,0.2326,0.2328,0.2331,0,0,0,0,0,0,0.1852,0.186,0.194,0.1912,0.1924,0.1985,0.1997,0.2007,0.2066,0.2081,0.2093,0.2105,0.2135,0.2144,0.221,0.225,0.2188,0.219,0.2323,0.2326,0.2329,0.2383,0,0,0,0,0,0,0.1849,0.1859,0.1884,0.1911,0.1925,0.1989,0.1996,0.2008,0.2069,0.2077,0.2129,0.2136,0.2137,0.2206,0.2212,0.2252,0.2192,0.232,0.2324,0.2328,0.2379,0.2388,0.2396,0,0,0,0,0,0.1845,0.1867,0.1884,0.1895,0.1951,0.1991,0.2001,0.2046,0.2071,0.2102,0.2144,0.2137,0.2237,0.221,0.2217,0.2258,0.2318,0.2323,0.2328,0.2375,0.2386,0.2396,0,0,0,0,0,0,0.1839,0.1877,0.1897,0.1931,0.1972,0.2004,0.2045,0.2071,0.2128,0.215,0.2163,0.2173,0.2248,0.2248,0.2218,0.2313,0.2277,0.2284,0.2311,0.2322,0.233,0.2344,0.2194,0,0,0,0,0,0.1847,0.1876,0.1913,0.1946,0.1974,0.2018,0.2049,0.2079,0.2122,0.2152,0.2187,0.2228,0.2265,0.2291,0.2323,0.237,0.2389,0.2404,0.2412,0.242,0.2438,0.2495,0.2511,0.2347,0.2347,0.2347,0,0,0.1853,0.188,0.1898,0.1948,0.199,0.2028,0.2042,0.2103,0.2142,0.215,0.2233,0.2265,0.2288,0.2346,0.2379,0.2356,0.2478,0.2426,0.2432,0.2446,0.2502,0.2518,0.2532,0.235,0.235,0.2349,0,0,0.1868,0.1911,0.1939,0.1976,0.2042,0.2068,0.2095,0.2154,0.2197,0.2264,0.2286,0.2349,0.2402,0.2428,0.2443,0.252,0.2526,0.2535,0.2585,0.2641,0.2655,0.2667,0.2715,0.2731,0.2533,0.2533,0.2533,0,0.1879,0.1915,0.1956,0.1993,0.2029,0.209,0.2129,0.2176,0.225,0.2289,0.2303,0.2417,0.2438,0.2506,0.2539,0.254,0.2573,0.2538,0.2651,0.2664,0.2676,0.2722,0.2739,0.2537,0.2536,0.2536,0.2536,0,0.1902,0.1949,0.1976,0.2039,0.208,0.2132,0.2191,0.2255,0.2314,0.2356,0.246,0.2501,0.2567,0.2585,0.2588,0.2684,0.2683,0.2657,0.2621,0.2695,0.2739,0.2756,0.2541,0.254,0.2539,0.2538,0,0,0.1878,0.1973,0.1986,0.2024,0.2113,0.2143,0.2224,0.2303,0.2371,0.2453,0.2536,0.2614,0.2658,0.2681,0.2702,0.2755,0.2866,0.2753,0.2754,0.2794,0.3002,0.2809,0.2808,0.2866,0.2869,0.2871,0.3,0,0.1892,0.1954,0.2003,0.2076,0.2115,0.2194,0.226,0.234,0.2424,0.2523,0.2593,0.2689,0.2685,0.2744,0.2795,0.2861,0.2914,0.2834,0.293,0.2933,0.2746,0.2822,0.2881,0.3013,0.3016,0.3019,0.3021,0,0.189,0.1936,0.2001,0.2096,0.2125,0.2183,0.2304,0.2375,0.2514,0.2582,0.2688,0.2758,0.2876,0.2855,0.2999,0.2956,0.2992,0.3026,0.303,0.2844,0.2771,0.2923,0.3051,0.3049,0.3047,0.3045,0.3043,0,0.1825,0.1931,0.1983,0.2016,0.2133,0.2192,0.2271,0.2402,0.2485,0.2647,0.2736,0.2857,0.2961,0.3027,0.311,0.3078,0.3253,0.3201,0.3058,0.3046,0.3156,0.3141,0.3294,0.3294,0.3294,0.3294,0.3293,0,0.1791,0.1835,0.197,0.1993,0.2081,0.2174,0.229,0.2383,0.2541,0.2639,0.2779,0.2876,0.3019,0.3129,0.3159,0.3165,0.3293,0.3088,0.3069,0.3176,0.3162,0.3168,0.3151,0.3298,0.3297,0.3296,0.3296,0,0.1688,0.1782,0.1849,0.1991,0.205,0.2112,0.2298,0.2375,0.2545,0.2682,0.275,0.2947,0.308,0.3188,0.3314,0.3222,0.3248,0.3213,0.3348,0.3332,0.2992,0.2977,0.3059,0.3053,0.3049,0.3045,0.3041,0,0.1636,0.1661,0.1825,0.1885,0.1959,0.2084,0.217,0.2353,0.2435,0.2694,0.274,0.2956,0.3056,0.3091,0.32,0.3239,0.3196,0.3182,0.3056,0.2996,0.2971,0.2964,0.2956,0.3034,0.3032,0.3031,0.303,0,0.1529,0.1604,0.1661,0.1786,0.1892,0.1986,0.2124,0.2177,0.2382,0.2569,0.2675,0.2757,0.2898,0.2977,0.3038,0.3051,0.3171,0.3131,0.3139,0.302,0.2966,0.2944,0.2942,0.3013,0.3016,0.3017,0.3018,0,0.1466,0.1469,0.1571,0.1664,0.1792,0.1849,0.194,0.2048,0.2159,0.2437,0.2468,0.2683,0.2869,0.2883,0.2936,0.2939,0.2882,0.2766,0.2792,0.2812,0.2667,0.2558,0.248,0,0,0,0,0,0.1395,0.1382,0.1446,0.1537,0.1656,0.1734,0.1892,0.1987,0.22,0.2212,0.2332,0.2444,0.2539,0.2656,0.261,0.2819,0.2887,0.275,0.2764,0.2921,0.294,0.279,0,0,0,0,0,0,0.135,0.139,0.1389,0.1417,0.1463,0.157,0.1667,0.1807,0.1826,0.2053,0.2126,0.229,0.2428,0.2545,0.2564,0.2595,0.255,0.2884,0.2877,0.291,0.2927,0.2943,0.2795,0,0,0,0,0]},{"header":{"parameterUnit":"m.s-1","parameterCategory":2,"la1":30.2991,"la2":30.254,"lo1":-89.0895,"lo2":-89.0444,"dy":0.0017,"dx":0.0017,"nx":28,"ny":28,"refTime":"2025-11-07T03:00:00:Z","depth":"4","parameterNumber":3,"parameterNumberName":"V-component_of_CURRENTS"},"data":[0,0,0,0,0,0,0,0,0,0,0,0,0,0,0,0,0,0,0,0,0,0,0,0,0,0,0,0,0,0,0,0,0,0,0,0,0,0,0,0,0,0,0,0,0,0,0,0,0,0,0,0,0,0,0,0,0,0,0.0156,0.0155,0,0.012,0.012,0.0119,0.0092,0.0092,0.0092,0.0092,0.0032,0.003,0.0029,0,0,0,0,0,0,0,0,0,0,0,0,0,0.0165,0.0165,0.0156,0.0155,0.0155,0.012,0.012,0.0119,0.0092,0.0092,0.0092,0.0092,0.0032,0.003,0.0029,0,0,0,0,0,0,0,0,0,0,0,0,0,0.0148,0.0165,0.0156,0.0138,0.0136,0.012,0.012,0.0119,0.0092,0.0092,0.0092,0.0092,0.0033,0.0031,0.0029,0.0022,0,0,0.0022,0.0021,0,0,0,0,0,0,0,0,0.0149,0.0148,0.0141,0.0139,0.0137,0.0111,0.0101,0.0085,0.0093,0.0109,0.0092,0.0091,0.0056,0.0052,0.0046,0.0019,0.0016,0.0022,0.0021,0.002,0.0019,0,0,0,0,0,0,0,0.015,0.0149,0.0141,0.014,0.0138,0.0119,0.0117,0.0098,0.0084,0.0107,0.0105,0.0102,0.0055,0.0048,0.0044,0.0016,0.0022,0.002,0.0019,0.0018,-0.0019,-0.0019,0,0,0,0,0,0,0.0158,0.015,0.0142,0.014,0.0143,0.0119,0.0116,0.0119,0.0085,0.0079,0.0102,0.0101,0.0052,0.0047,0.0042,0.0045,0.002,0.0018,0.0017,-0.0019,-0.0019,-0.0019,0,0,0,0,0,0,0.0158,0.0158,0.0144,0.0144,0.0141,0.012,0.0123,0.0119,0.0114,0.0081,0.0075,0.0103,0.0051,0.0045,0.0032,0.0042,0.0017,0.0015,-0.002,-0.0019,-0.0019,0.0043,0,0,0,0,0,0,0.0159,0.0158,0.0163,0.0145,0.0141,0.0143,0.0123,0.0118,0.0113,0.0111,0.008,0.0073,0.0051,0.0035,0.003,0.0039,0.0013,-0.002,-0.0019,-0.0019,0.004,0.0045,0.0049,0,0,0,0,0,0.0159,0.0172,0.0163,0.0162,0.0149,0.0144,0.0141,0.0123,0.0113,0.0117,0.0096,0.0075,0.0035,0.0034,0.0028,0.0036,-0.002,-0.0019,-0.0019,0.0038,0.0044,0.0049,0,0,0,0,0,0,0.0178,0.017,0.016,0.0169,0.0159,0.014,0.0142,0.0129,0.0115,0.0113,0.008,0.0072,0.0064,0.0041,0.0041,0.0026,0.0003,0.0003,0.0049,0.0054,0.0058,0.0073,0.0012,0,0,0,0,0,0.0184,0.0194,0.0178,0.0186,0.0183,0.0162,0.0158,0.0148,0.0132,0.0126,0.0103,0.0079,0.0061,0.0051,0.0031,0.0024,-0.0013,0.0024,0.0029,0.0033,0.0039,-0.001,-0.001,-0.0016,-0.0016,-0.0016,0,0,0.0192,0.019,0.0194,0.019,0.0181,0.0189,0.0159,0.016,0.0168,0.0122,0.0124,0.0094,0.0062,0.0056,0.005,0.0039,0.0014,0.0033,0.0037,0.0042,-0.001,-0.0009,-0.0008,-0.0016,-0.0016,-0.0016,0,0,0.0218,0.0213,0.0229,0.0227,0.022,0.0211,0.0214,0.0197,0.0191,0.0187,0.0155,0.0135,0.0107,0.0087,0.0073,0.009,0.004,0.008,0.0116,0.0068,0.0068,0.0068,0.0018,0.0013,0.0083,0.0083,0.0083,0,0.0227,0.0247,0.0232,0.0248,0.0256,0.0225,0.0247,0.0236,0.0218,0.0215,0.0196,0.0152,0.0124,0.0114,0.0119,0.0101,0.0062,0.01,0.0074,0.0073,0.0071,0.0021,0.0014,0.0086,0.0086,0.0086,0.0085,0,0.0263,0.028,0.0291,0.0305,0.0311,0.0324,0.0312,0.0311,0.0295,0.0278,0.0262,0.0218,0.0193,0.0177,0.0154,0.0135,0.0106,0.0085,0.0062,0.0076,0.0022,0.0014,0.0091,0.0089,0.0089,0.0088,0,0,0.028,0.0311,0.0316,0.034,0.0345,0.0358,0.0371,0.0373,0.0382,0.0347,0.0351,0.0308,0.0275,0.0256,0.0217,0.0174,0.0128,0.013,0.0126,0.0086,0.0015,0.0004,-0.0007,0.0098,0.0097,0.0097,-0.002,0,0.0312,0.0365,0.0369,0.042,0.0447,0.0436,0.0456,0.0453,0.0435,0.0428,0.0373,0.036,0.0308,0.0298,0.0246,0.016,0.011,0.0161,0.0004,-0.0001,-0.0009,-0.0015,0.0094,-0.0027,-0.0028,-0.003,-0.0031,0,0.0346,0.038,0.0439,0.0491,0.0502,0.0528,0.0555,0.0568,0.0544,0.0529,0.0493,0.0445,0.0388,0.034,0.0194,0.0227,0.013,0.0054,0.0047,0.0012,-0.0026,-0.0044,-0.0046,-0.0045,-0.0044,-0.0043,-0.0042,0,0.0377,0.0432,0.0487,0.0504,0.055,0.0577,0.06,0.0598,0.0627,0.0592,0.0599,0.0509,0.0478,0.0342,0.0188,0.0187,0.0016,-0.0006,-0.011,-0.0113,-0.0095,-0.0094,-0.0113,-0.0113,-0.0113,-0.0113,-0.0112,0,0.0414,0.0459,0.0509,0.054,0.0612,0.0626,0.0694,0.0691,0.071,0.0746,0.0659,0.0654,0.0476,0.0359,0.0205,0.0024,0.0024,-0.0106,-0.0143,-0.0067,-0.0061,-0.0101,-0.0098,-0.0117,-0.0116,-0.0115,-0.0114,0,0.0444,0.0471,0.0543,0.0605,0.0632,0.0686,0.0779,0.0827,0.0822,0.0864,0.0862,0.0764,0.0605,0.0414,0.0189,0.0061,-0.0121,-0.0187,-0.0091,-0.0121,-0.0224,-0.0216,-0.0313,-0.0314,-0.0315,-0.0316,-0.0317,0,0.0465,0.0504,0.0597,0.0648,0.0683,0.077,0.0838,0.088,0.0933,0.0929,0.095,0.0822,0.0728,0.0411,0.0191,-0.011,-0.0153,-0.0253,-0.024,-0.0217,-0.0244,-0.0235,-0.0226,-0.0319,-0.0319,-0.0319,-0.032,0,0.0505,0.054,0.0601,0.071,0.0793,0.0892,0.0983,0.1034,0.1075,0.1078,0.1029,0.0863,0.0682,0.0423,0.0187,-0.003,-0.0191,-0.0265,-0.0264,-0.0253,-0.0226,-0.0249,-0.0239,-0.0324,-0.0323,-0.0323,-0.0323,0,0.0536,0.0588,0.0671,0.0768,0.0877,0.0974,0.1025,0.1086,0.1138,0.1127,0.1105,0.0903,0.0787,0.0463,0.0244,0.0029,-0.0028,-0.01,-0.0109,-0.0107,-0.0017,0.005,0.0006,0,0,0,0,0,0.0562,0.0624,0.072,0.0826,0.0939,0.0998,0.1106,0.1146,0.1187,0.1169,0.1142,0.0971,0.0648,0.0507,0.0292,0.0204,-0.0078,-0.0058,-0.0169,-0.0346,-0.0341,-0.0271,0,0,0,0,0,0,0.0577,0.0669,0.0722,0.0861,0.0935,0.106,0.1131,0.1156,0.1147,0.1147,0.0986,0.0904,0.0595,0.077,0.0282,0.0216,0.0113,-0.0206,-0.0212,-0.0348,-0.0344,-0.034,-0.0267,0,0,0,0,0]}]]